Location: Baia Mare
(47.6567°N, 23.5850°E)
Time: 18:03:20
(UTC+03:00)

ISS - Pass Details

Date: 05 June 2018
Orbit: 402 x 406 km, 51.6° (Epoch: 20 June)

Event Time Altitude Azimuth Distance (km) Brightness Sun altitude
Rises 23:04:56 0° 286° (WNW) 2,323 0.8 -13.1°
Reaches altitude 10° 23:07:28 10° 266° (W) 1,458 -0.6 -13.3°
Maximum altitude 23:09:43 17° 222° (SW) 1,088 -1.8 -13.5°
Enters shadow 23:10:45 15° 199° (SSW) 1,171 -1.9 -13.6°
